| time (UTC) | temp C | wind direction | speed KPH | gust KPH | rain 1hr cm | rain 24hr cm | rain mn cm | humidity % | barometer mb |
| 20260507030031 | 22 | 145 | 4.8 | 12.9 | 0.00 | 0.03 | 0.03 | 93 | 1015.2 |
| 20260507024511 | 22 | 138 | 3.2 | 8.0 | 0.00 | 0.03 | 0.03 | 93 | 1015.2 |
| 20260507023018 | 23 | 108 | 3.2 | 6.4 | 0.00 | 0.03 | 0.03 | 92 | 1014.9 |
| 20260507021522 | 23 | 146 | 4.8 | 9.7 | 0.00 | 0.03 | 0.03 | 92 | 1014.7 |
| 20260507020025 | 23 | 126 | 4.8 | 8.0 | 0.00 | 0.03 | 0.03 | 92 | 1015.1 |
| 20260507014540 | 23 | 147 | 4.8 | 9.7 | 0.00 | 0.03 | 0.03 | 92 | 1014.7 |
| 20260507013011 | 23 | 165 | 6.4 | 9.7 | 0.00 | 0.03 | 0.03 | 91 | 1014.8 |
| 20260507011529 | 23 | 153 | 3.2 | 9.7 | 0.00 | 0.03 | 0.03 | 91 | 1015.4 |
| 20260507010021 | 23 | 181 | 4.8 | 14.5 | 0.00 | 0.03 | 0.03 | 90 | 1015.0 |
| 20260507004524 | 23 | 165 | 3.2 | 9.7 | 0.00 | 0.03 | 0.03 | 89 | 1014.9 |
| 20260507003028 | 23 | 184 | 4.8 | 14.5 | 0.00 | 0.03 | 0.03 | 88 | 1014.9 |
| 20260507001519 | 23 | 122 | 6.4 | 16.1 | 0.00 | 0.03 | 0.03 | 86 | 1014.5 |
| 20260507000006 | 23 | 166 | 4.8 | 11.3 | 0.00 | 0.03 | 0.03 | 84 | 1014.6 |
| 20260506234505 | 24 | 151 | 4.8 | 11.3 | 0.00 | 0.03 | 0.03 | 83 | 1014.4 |
| 20260506233007 | 25 | 210 | 8.0 | 12.9 | 0.00 | 0.03 | 0.03 | 81 | 1014.4 |
| 20260506231504 | 25 | 185 | 8.0 | 17.7 | 0.00 | 0.03 | 0.03 | 79 | 1014.6 |
| 20260506230006 | 25 | 155 | 6.4 | 17.7 | 0.00 | 0.03 | 0.03 | 77 | 1014.5 |
| 20260506224508 | 26 | 192 | 6.4 | 14.5 | 0.00 | 0.03 | 0.03 | 74 | 1014.8 |
| 20260506223014 | 26 | 169 | 6.4 | 17.7 | 0.00 | 0.03 | 0.03 | 72 | 1014.9 |
| 20260506221508 | 26 | 203 | 8.0 | 14.5 | 0.00 | 0.03 | 0.03 | 71 | 1014.9 |
| 20260506220008 | 26 | 108 | 8.0 | 16.1 | 0.00 | 0.03 | 0.03 | 70 | 1015.0 |
| 20260506214506 | 27 | 130 | 6.4 | 17.7 | 0.00 | 0.03 | 0.03 | 69 | 1015.6 |
| 20260506213008 | 27 | 181 | 8.0 | 16.1 | 0.00 | 0.03 | 0.03 | 67 | 1015.5 |
| 20260506211506 | 27 | 143 | 6.4 | 16.1 | 0.00 | 0.03 | 0.03 | 69 | 1015.5 |
| 20260506210016 | 27 | 143 | 6.4 | 14.5 | 0.00 | 0.03 | 0.03 | 67 | 1015.6 |
| 20260506204511 | 27 | 153 | 8.0 | 24.1 | 0.00 | 0.03 | 0.03 | 70 | 1015.7 |
| 20260506203010 | 27 | 120 | 6.4 | 17.7 | 0.00 | 0.03 | 0.03 | 70 | 1015.7 |
| 20260506201512 | 27 | 182 | 4.8 | 17.7 | 0.00 | 0.03 | 0.03 | 69 | 1016.0 |
| 20260506200009 | 28 | 181 | 6.4 | 19.3 | 0.00 | 0.03 | 0.03 | 68 | 1016.5 |
| 20260506194511 | 28 | 161 | 6.4 | 17.7 | 0.00 | 0.03 | 0.03 | 65 | 1016.7 |
| 20260506193015 | 28 | 70 | 3.2 | 17.7 | 0.00 | 0.03 | 0.03 | 66 | 1016.8 |
| 20260506191512 | 28 | 86 | 3.2 | 16.1 | 0.00 | 0.03 | 0.03 | 65 | 1016.9 |
| 20260506190012 | 28 | 153 | 6.4 | 16.1 | 0.00 | 0.03 | 0.03 | 64 | 1017.1 |
| 20260506184513 | 28 | 212 | 6.4 | 16.1 | 0.00 | 0.03 | 0.03 | 64 | 1017.2 |
| 20260506183016 | 28 | 212 | 8.0 | 17.7 | 0.00 | 0.03 | 0.03 | 63 | 1017.2 |
| 20260506181513 | 28 | 130 | 4.8 | 14.5 | 0.00 | 0.03 | 0.03 | 63 | 1017.3 |
| 20260506180025 | 28 | 154 | 4.8 | 19.3 | 0.00 | 0.03 | 0.03 | 66 | 1017.5 |
| 20260506174520 | 28 | 105 | 3.2 | 19.3 | 0.00 | 0.03 | 0.03 | 67 | 1017.6 |
| 20260506173022 | 28 | 162 | 6.4 | 17.7 | 0.00 | 0.03 | 0.03 | 69 | 1017.7 |
| 20260506171517 | 28 | 152 | 3.2 | 20.9 | 0.00 | 0.03 | 0.03 | 65 | 1017.9 |
| 20260506170021 | 28 | 176 | 8.0 | 16.1 | 0.00 | 0.03 | 0.03 | 69 | 1017.9 |
| 20260506164520 | 27 | 162 | 8.0 | 16.1 | 0.00 | 0.03 | 0.03 | 70 | 1017.7 |
| 20260506163030 | 27 | 192 | 8.0 | 19.3 | 0.00 | 0.03 | 0.03 | 70 | 1017.6 |
| 20260506161520 | 26 | 166 | 8.0 | 16.1 | 0.00 | 0.03 | 0.03 | 73 | 1017.5 |
| 20260506160021 | 26 | 140 | 8.0 | 24.1 | 0.00 | 0.03 | 0.03 | 73 | 1017.4 |
| 20260506154524 | 27 | 228 | 6.4 | 19.3 | 0.00 | 0.03 | 0.03 | 74 | 1017.4 |
| 20260506153021 | 26 | 231 | 8.0 | 17.7 | 0.00 | 0.03 | 0.03 | 74 | 1017.3 |
| 20260506151526 | 26 | 161 | 9.7 | 17.7 | 0.00 | 0.03 | 0.03 | 75 | 1017.1 |
| 20260506150018 | 26 | 200 | 8.0 | 19.3 | 0.00 | 0.03 | 0.03 | 76 | 1017.0 |
| 20260506144525 | 26 | 153 | 9.7 | 19.3 | 0.00 | 0.03 | 0.03 | 76 | 1016.7 |
| 20260506143004 | 26 | 148 | 11.3 | 20.9 | 0.00 | 0.03 | 0.03 | 77 | 1016.7 |
| 20260506141507 | 26 | 232 | 4.8 | 17.7 | 0.00 | 0.03 | 0.03 | 79 | 1016.6 |
| 20260506140016 | 25 | 193 | 9.7 | 16.1 | 0.03 | 0.03 | 0.03 | 81 | 1016.4 |
| 20260506134521 | 23 | 150 | 8.0 | 12.9 | 0.03 | 0.03 | 0.03 | 88 | 1016.4 |
| 20260506133024 | 22 | 182 | 4.8 | 11.3 | 0.03 | 0.03 | 0.03 | 95 | 1016.2 |
| 20260506131507 | 22 | 181 | 3.2 | 9.7 | 0.03 | 0.03 | 0.03 | 97 | 1016.0 |
| 20260506130011 | 21 | 165 | 0.0 | 3.2 | 0.00 | 0.00 | 0.00 | 97 | 1015.9 |
| 20260506124517 | 20 | 171 | 0.0 | 3.2 | 0.00 | 0.00 | 0.00 | 97 | 1015.7 |
| 20260506123024 | 20 | 124 | 0.0 | 3.2 | 0.00 | 0.00 | 0.00 | 97 | 1015.5 |
| 20260506121527 | 19 | 66 | 1.6 | 4.8 | 0.00 | 0.00 | 0.00 | 97 | 1015.1 |
| 20260506120028 | 18 | 109 | 1.6 | 6.4 | 0.00 | 0.00 | 0.00 | 97 | 1014.9 |
| 20260506114511 | 18 | 113 | 0.0 | 3.2 | 0.00 | 0.00 | 0.00 | 97 | 1014.7 |
| 20260506113018 | 17 | 70 | 0.0 | 0.0 | 0.00 | 0.00 | 0.00 | 97 | 1014.5 |
| 20260506111524 | 17 | 45 | 0.0 | 1.6 | 0.00 | 0.00 | 0.00 | 97 | 1014.4 |
| 20260506110027 | 17 | 2 | 0.0 | 0.0 | 0.00 | 0.00 | 0.00 | 97 | 1014.2 |
| 20260506104529 | 17 | 285 | 0.0 | 0.0 | 0.00 | 0.00 | 0.00 | 97 | 1014.2 |
| 20260506103022 | 17 | 285 | 0.0 | 0.0 | 0.00 | 0.00 | 0.00 | 97 | 1014.0 |
| 20260506101506 | 17 | 285 | 0.0 | 0.0 | 0.00 | 0.00 | 0.00 | 97 | 1013.9 |
| 20260506100004 | 17 | 285 | 0.0 | 0.0 | 0.00 | 0.00 | 0.00 | 97 | 1013.9 |
| 20260506094519 | 17 | 285 | 0.0 | 0.0 | 0.00 | 0.00 | 0.00 | 97 | 1014.1 |
| 20260506093015 | 17 | 285 | 0.0 | 0.0 | 0.00 | 0.00 | 0.00 | 97 | 1014.0 |
| 20260506091518 | 17 | 261 | 0.0 | 0.0 | 0.00 | 0.00 | 0.00 | 97 | 1014.0 |
| 20260506090005 | 17 | 261 | 0.0 | 0.0 | 0.00 | 0.00 | 0.00 | 96 | 1014.2 |
| 20260506084505 | 17 | 196 | 0.0 | 0.0 | 0.00 | 0.00 | 0.00 | 95 | 1014.2 |
| 20260506083012 | 18 | 198 | 0.0 | 0.0 | 0.00 | 0.00 | 0.00 | 97 | 1014.3 |
| 20260506081514 | 18 | 302 | 0.0 | 0.0 | 0.00 | 0.00 | 0.00 | 97 | 1014.5 |
| 20260506073011 | 17 | 147 | 0.0 | 0.0 | 0.00 | 0.00 | 0.00 | 95 | 1014.3 |
| 20260506071514 | 18 | 148 | 0.0 | 0.0 | 0.00 | 0.00 | 0.00 | 96 | 1014.5 |
| 20260506061508 | 18 | 150 | 0.0 | 0.0 | 0.00 | 0.00 | 0.00 | 96 | 1014.8 |
| 20260506044547 | 20 | 165 | 0.0 | 0.0 | 0.00 | 0.00 | 0.00 | 94 | 1015.5 |
| 20260506043022 | 20 | 165 | 0.0 | 0.0 | 0.00 | 0.00 | 0.00 | 94 | 1015.8 |
| 20260506041524 | 21 | 129 | 0.0 | 4.8 | 0.00 | 0.00 | 0.00 | 94 | 1015.8 |
| 20260506040029 | 21 | 150 | 0.0 | 0.0 | 0.00 | 0.00 | 0.00 | 94 | 1016.0 |
| 20260506034534 | 21 | 162 | 0.0 | 0.0 | 0.00 | 0.00 | 0.00 | 94 | 1015.9 |
| 20260506033019 | 21 | 122 | 0.0 | 3.2 | 0.00 | 0.00 | 0.00 | 93 | 1015.8 |
| 20260506031522 | 21 | 131 | 1.6 | 6.4 | 0.00 | 0.00 | 0.00 | 93 | 1015.8 |